Location: Earls Croome
(52.0667°N, 2.2000°W)
Time: 09:03:31
(UTC+00:00)

SL-27 R/B - Pass Details

Date: 17 November 2019
Orbit: 420 x 472 km, 74.7° (Epoch: 10 December)

Event Time Altitude Azimuth Distance (km) Brightness Sun altitude
Exits shadow 06:20:16 15° 308° (NW) 1,231 4.0 -10.9°
Maximum altitude 06:20:19 15° 310° (NW) 1,231 4.0 -10.9°
Drops below altitude 10° 06:22:24 10° 348° (NNW) 1,524 4.8 -10.5°
Sets 06:25:07 0° 13° (NNE) 2,402 6.0 -10.2°
